1998-067WY

Last updated on Thu Nov 21 2024 00:02:09 GMT+0000 (Coordinated Universal Time)

1 60958U 98067WY 24325.17645320 .00335170 00000+0 16499-2 0 9991 2 60958 51.6277 255.1117 0008771 169.5810 190.5375 15.80617885 12937
UTC large
Height (km)
Speed (km/s)
/
Latitude / Longitude
Inclination (degrees)
Orbital Period (minutes)
Azimuth
Elevation
Range (km)
Doppler Factor

Next 0 passes for location: London (51.5072 / 0.1276)

Sorry there are no passes over London.